IRNSS-1E

Last updated on Fri Jul 11 2025 00:02:44 GMT+0000 (Coordinated Universal Time)

1 41241U 16003A 25191.64736637 -.00000307 00000+0 00000+0 0 9991 2 41241 32.4783 64.7067 0019019 177.9882 30.9093 1.00272991 34656
UTC large
Height (km)
Speed (km/s)
/
Latitude / Longitude
Inclination (degrees)
Orbital Period (minutes)
Azimuth
Elevation
Range (km)
Doppler Factor

Next 0 passes for location: London (51.5072 / 0.1276)

Sorry there are no passes over London.